BAW1983 EGPH-EGGP

Flight info

Callsign BAW1983
Flight time N/A
Altitude 25000
Route GOSAM P600 FENIK L612 LAKEY
Aircraft A320/M-SDE3FGHIRWY/LB1

Departure

Time 2026-04-25 12:32
Airport Edinburgh Airport (EGPH)

Arrival

Time N/A
Airport Liverpool John Lennon Airport (EGGP)
Time Latitude Longitude Altitude Speed Heading
2026-04-25 11:48 55.94919 -3.36428 113 ft 0 kts 148°
2026-04-25 12:22 55.94925 -3.36434 116 ft 4 kts 150°
2026-04-25 12:23 55.94949 -3.36456 113 ft 4 kts 160°
2026-04-25 12:23 55.94974 -3.36467 113 ft 4 kts 183°
2026-04-25 12:23 55.94994 -3.36454 116 ft 2 kts 238°
2026-04-25 12:23 55.94997 -3.36446 116 ft 0 kts 239°
2026-04-25 12:27 55.94997 -3.36448 116 ft 1 kts 239°
2026-04-25 12:27 55.94984 -3.36486 112 ft 6 kts 239°
2026-04-25 12:27 55.94956 -3.36566 113 ft 9 kts 239°
2026-04-25 12:27 55.94917 -3.36682 113 ft 12 kts 238°
2026-04-25 12:28 55.94906 -3.36808 116 ft 9 kts 309°
2026-04-25 12:28 55.94918 -3.36920 115 ft 12 kts 242°
2026-04-25 12:28 55.94873 -3.37060 113 ft 14 kts 239°
2026-04-25 12:28 55.94816 -3.37231 113 ft 18 kts 239°
2026-04-25 12:29 55.94748 -3.37436 115 ft 21 kts 239°
2026-04-25 12:29 55.94664 -3.37664 116 ft 17 kts 237°
2026-04-25 12:29 55.94597 -3.37859 112 ft 20 kts 239°
2026-04-25 12:29 55.94522 -3.38088 114 ft 23 kts 239°
2026-04-25 12:30 55.94432 -3.38350 116 ft 26 kts 238°
2026-04-25 12:30 55.94339 -3.38625 114 ft 19 kts 239°
2026-04-25 12:30 55.94279 -3.38804 114 ft 10 kts 239°
2026-04-25 12:30 55.94314 -3.38899 116 ft 12 kts 327°
2026-04-25 12:31 55.94377 -3.38966 114 ft 8 kts 330°
2026-04-25 12:31 55.94426 -3.38937 113 ft 10 kts 59°
2026-04-25 12:31 55.94464 -3.38820 114 ft 41 kts 59°
2026-04-25 12:31 55.94780 -3.37899 112 ft 127 kts 58°
2026-04-25 12:32 55.95340 -3.36243 158 ft 179 kts 59°
2026-04-25 12:32 55.95947 -3.34295 986 ft 177 kts 62°
2026-04-25 12:32 55.96550 -3.32348 1839 ft 183 kts 62°
2026-04-25 12:32 55.97226 -3.30309 2297 ft 199 kts 61°
2026-04-25 12:33 55.97979 -3.28067 2461 ft 223 kts 60°
2026-04-25 12:33 55.99001 -3.25818 2663 ft 248 kts 34°
2026-04-25 12:33 56.00683 -3.24950 3037 ft 261 kts 355°
2026-04-25 12:33 56.02355 -3.26079 3638 ft 260 kts 319°
2026-04-25 12:34 56.03475 -3.28571 4307 ft 257 kts 300°
2026-04-25 12:34 56.04236 -3.31472 4922 ft 258 kts 286°
2026-04-25 12:34 56.04403 -3.34630 5593 ft 257 kts 262°
2026-04-25 12:34 56.04276 -3.35642 5778 ft 259 kts 252°
2026-04-25 12:35 56.02651 -3.40283 6682 ft 266 kts 242°
2026-04-25 12:35 56.01891 -3.43271 7187 ft 266 kts 254°
2026-04-25 12:35 56.01390 -3.46451 7723 ft 266 kts 256°
2026-04-25 12:35 56.00918 -3.49655 8236 ft 267 kts 257°
2026-04-25 12:36 56.00453 -3.52896 8684 ft 271 kts 258°
2026-04-25 12:36 55.99989 -3.56166 9188 ft 273 kts 258°
2026-04-25 12:36 55.99521 -3.59482 9604 ft 277 kts 257°
2026-04-25 12:36 55.99048 -3.62822 10106 ft 277 kts 258°
2026-04-25 12:37 55.98568 -3.66200 10387 ft 285 kts 258°
2026-04-25 12:37 55.98071 -3.69700 10504 ft 296 kts 258°
2026-04-25 12:37 55.97555 -3.73316 10631 ft 305 kts 257°
2026-04-25 12:37 55.97032 -3.76967 10729 ft 311 kts 257°
2026-04-25 12:38 55.96486 -3.80745 10876 ft 316 kts 257°
2026-04-25 12:38 55.96115 -3.83306 11027 ft 317 kts 257°
2026-04-25 12:38 55.95377 -3.88371 11320 ft 318 kts 257°
2026-04-25 12:38 55.94818 -3.92184 11542 ft 318 kts 257°
2026-04-25 12:39 55.94438 -3.94772 11671 ft 320 kts 257°
2026-04-25 12:39 55.93767 -3.98561 11839 ft 323 kts 247°
2026-04-25 12:39 55.92642 -4.02033 12054 ft 325 kts 233°
2026-04-25 12:39 55.91094 -4.04982 12253 ft 328 kts 221°
2026-04-25 12:40 55.89240 -4.07363 12441 ft 330 kts 216°
2026-04-25 12:40 55.87349 -4.09675 12631 ft 331 kts 216°
2026-04-25 12:40 55.85452 -4.11996 12817 ft 331 kts 217°
2026-04-25 12:40 55.83546 -4.14328 13025 ft 332 kts 216°
2026-04-25 12:41 55.81651 -4.16643 13190 ft 333 kts 217°
2026-04-25 12:41 55.79733 -4.18990 13361 ft 334 kts 216°
2026-04-25 12:41 55.77821 -4.21329 13537 ft 335 kts 216°
2026-04-25 12:41 55.75786 -4.23376 13723 ft 337 kts 206°
2026-04-25 12:42 55.73564 -4.24708 13894 ft 340 kts 194°
2026-04-25 12:42 55.71981 -4.25163 13999 ft 341 kts 186°
2026-04-25 12:42 55.68836 -4.24956 14198 ft 343 kts 171°
2026-04-25 12:42 55.66530 -4.23860 14354 ft 344 kts 162°
2026-04-25 12:43 55.64339 -4.22127 14489 ft 346 kts 153°
2026-04-25 12:43 55.62227 -4.20091 14622 ft 346 kts 152°
2026-04-25 12:43 55.58012 -4.15960 14867 ft 346 kts 153°
2026-04-25 12:44 55.55907 -4.13885 14995 ft 346 kts 153°
2026-04-25 12:44 55.53798 -4.11819 15121 ft 346 kts 153°
2026-04-25 12:44 55.49572 -4.07701 15364 ft 347 kts 152°
2026-04-25 12:45 55.47463 -4.05652 15487 ft 346 kts 153°
2026-04-25 12:45 55.45350 -4.03602 15607 ft 346 kts 152°
2026-04-25 12:45 55.41129 -3.99513 15856 ft 346 kts 152°
2026-04-25 12:46 55.39019 -3.97472 15977 ft 346 kts 152°
2026-04-25 12:46 55.36909 -3.95429 16101 ft 346 kts 152°
2026-04-25 12:46 55.34828 -3.93415 16234 ft 346 kts 152°
2026-04-25 12:46 55.32720 -3.91378 16350 ft 346 kts 152°
2026-04-25 12:47 55.30615 -3.89347 16479 ft 345 kts 152°
2026-04-25 12:47 55.28503 -3.87318 16610 ft 345 kts 152°
2026-04-25 12:47 55.26398 -3.85302 16729 ft 345 kts 152°
2026-04-25 12:47 55.24285 -3.83281 16861 ft 346 kts 153°
2026-04-25 12:48 55.22172 -3.81257 16881 ft 346 kts 152°
2026-04-25 12:48 55.20060 -3.79233 16309 ft 348 kts 152°
2026-04-25 12:48 55.17925 -3.77189 16180 ft 350 kts 152°
2026-04-25 12:48 55.15785 -3.75144 16202 ft 352 kts 152°